Location: Newark
(51.0089°N, 21.5817°E)
Time: 02:07:32
(UTC+00:00)

XW-2F - Pass Details

Date: 01 March 2020
Orbit: 503 x 521 km, 97.5° (Epoch: 06 April)

Event Time Altitude Azimuth Distance (km) Brightness Sun altitude
Rises 16:43:17 0° 203° (SSW) 2,593 ? -5.2°
Reaches altitude 10° 16:45:51 10° 223° (SW) 1,716 ? -5.6°
Maximum altitude 16:48:29 19° 268° (W) 1,278 ? -6.0°
Drops below altitude 10° 16:51:10 10° 314° (NW) 1,732 ? -6.4°
Sets 16:53:46 0° 334° (NNW) 2,627 ? -6.8°
